Regional Weather Roundup
Issued by NWS

Home | Current Version | Previous Version | Graphics & Text | Print | Product List | Glossary On
Versions: 1 2 3 4 5 6 7 8 9 10 11 12 13 14 15 16 17 18 19 20 21 22 23 24 25 26 27 28 29 30 31 32 33 34 35 36 37 38 39 40 41 42 43 44 45 46 47 48 49 50
422
ASUS43 KDMX 290703
RWRIA

WEATHER ROUNDUP FOR IOWA
NATIONAL WEATHER SERVICE DES MOINES IA
200 AM CDT SUN MAY 29 2016

NOTE: "FAIR" INDICATES FEW OR NO CLOUDS BELOW 12,000 FEET WITH NO
SIGNIFICANT WEATHER AND/OR OBSTRUCTIONS TO VISIBILITY.

* - THESE STATIONS ARE NOT NWS STATIONS...THUS NOT UNDER NWS
QUALITY CONTROL.  THEY ALSO DO NOT REPORT WEATHER SUCH
AS PRECIPITATION OR FOG.

IAZ001>003-012>014-020>022-031>034-043>046-290800-
   NORTHWEST IOWA

CITY           SKY/WX    TMP DP  RH WIND       PRES   REMARKS
CARROLL *      CLEAR     61  59  94 W14       29.95S
CHEROKEE *     PTCLDY    59  59 100 W8        29.96S
DENISON *      CLEAR     59  57  94 CALM      29.96R
LE MARS *      PTCLDY    59  57  94 CALM      29.97S
ORANGE CITY *  CLEAR     59  57  94 W9        29.96R
SHELDON *      PTCLDY    59  59 100 W10       29.94R
SIOUX CITY     CLEAR     57  55  93 W5        29.97S
SPENCER        PTCLDY    60  57  89 W9        29.93R
STORM LAKE *   CLOUDY    61  59  94 W14       29.96R
$$

IAZ055>058-069>071-079>083-090>094-290800-
   SOUTHWEST IOWA

CITY           SKY/WX    TMP DP  RH WIND       PRES   REMARKS
ATLANTIC *     CLEAR     59  55  88 W6        29.98S
AUDUBON *      CLEAR     59  55  88 W3        29.97S
CLARINDA *       N/A     61  57  88 MISG      30.01S
COUNCIL BLFS * CLEAR     59  55  88 W6        30.00S
CRESTON *      CLEAR     59  55  88 W9        29.99S
HARLAN  *      CLEAR     57  55  94 W7        30.01S
LAMONI         CLEAR     61  58  90 SW9       29.99R
RED OAK *      CLEAR     57  55  94 CALM      30.00R
SHENANDOAH *   CLEAR     63  59  88 CALM      30.01R
$$

IAZ047>049-059>061-072>074-084-290800-
   CENTRAL IOWA

CITY           SKY/WX    TMP DP  RH WIND       PRES   REMARKS
AMES           CLOUDY    63  59  87 W13       29.91R
ANKENY *       CLOUDY    63  59  88 W13       29.93R
BOONE *          N/A     63  61  94 W12G18    29.91S
CHARITON *     CLEAR     63  59  88 SW9       29.96R
DES MOINES     PTCLDY    63  56  78 W13       29.93R
GRINNELL*      CLEAR     63  57  82 SW8       29.93R
KNOXVILLE *    CLEAR     64  57  77 SW10      29.93R
MARSHALLTOWN   PTCLDY    62  59  90 SW13      29.90R
NEWTON *       CLEAR     63  59  88 W10       29.92R
PELLA *        CLEAR     64  58  78 W9        29.94S
PERRY *          N/A     63  61  94 W14       29.94R
$$

IAZ004>006-015-016-023>025-035-036-290800-
   NORTH CENTRAL IOWA

CITY           SKY/WX    TMP DP  RH WIND       PRES   REMARKS
ALGONA *       CLOUDY    63  61  94 W8        29.92R
CLARION *      CLOUDY    63  63 100 W9        29.90S
ESTHERVILLE    PTCLDY    59  58  96 W8        29.91S
FORT DODGE *   CLOUDY    63  55  77 W8        29.93R
MASON CITY     CLOUDY    61  60  97 W10       29.89R
FOREST CITY *  MOCLDY    61  61 100 NW5       29.89R
WEBSTER CITY * CLOUDY    63  61  94 W10       29.90R
IOWA FALLS *   MOCLDY    63  61  94 W15       29.90R
$$

IAZ007>011-017>019-026>030-037>042-050>054-066-290800-
   NORTHEAST IOWA

CITY           SKY/WX    TMP DP  RH WIND       PRES   REMARKS
CEDAR RAPIDS   PTCLDY    63  61  93 S8        29.91R
CHARLES CITY * CLOUDY    63  63 100 SW7       29.87R
CLINTON *      PTCLDY    65  61  87 SW12      29.94
DECORAH *      CLOUDY    63  61  94 S6        29.85S
DUBUQUE        CLOUDY    62  59  90 S8        29.91F
MONTICELLO *   CLEAR     63  59  88 S7        29.90F
OELWEIN *      CLOUDY    64  61  88 SW14      29.88S
WATERLOO       MOCLDY    62  58  86 SW10      29.87R
$$

IAZ064-065-067-068-078-290800-
   EAST CENTRAL IOWA

CITY           SKY/WX    TMP DP  RH WIND       PRES   REMARKS
DAVENPORT      CLEAR     66  59  78 S9        29.94F
IOWA CITY      MOCLDY    66  60  81 SW7       29.93S
MT. PLEASANT * CLEAR     66  61  82 S7        29.95F
MUSCATINE *    CLEAR     66  59  77 SW8       29.94F
QUAD CITIES    CLEAR     68  59  73 SW8       29.94S
$$

IAZ062-063-075>077-085>089-095>099-290800-
   SOUTHEAST IOWA

CITY           SKY/WX    TMP DP  RH WIND       PRES   REMARKS
BURLINGTON     CLEAR     66  60  81 SW7       29.96F
FAIRFIELD *      N/A    N/A N/A N/A MISG        N/A
FORT MADISON * CLEAR     64  59  82 S6        29.97F
KEOKUK *       CLEAR     64  59  82 SW6       29.97S
OSKALOOSA *      N/A     64  59  82 SW10      29.94R
OTTUMWA        CLEAR     65  59  81 SW9       29.94R
WASHINGTON *   CLEAR     64 N/A N/A S9        29.95S
$$

ABBREVIATIONS USED IN REMARKS
   TC - TEMPERATURES IN CELSIUS
  WCI - WIND CHILL INDEX
   HX - HEAT INDEX
  VSB - VISIBILITY
$$





USA.gov is the U.S. government's official web portal to all federal, state and local government web resources and services.